Regional Weather Roundup
Issued by NWS

Home | Current Version | Previous Version | Graphics & Text | Print | Product List | Glossary On
Versions: 1 2 3 4 5 6 7 8 9 10 11 12 13 14 15 16 17 18 19 20 21 22 23 24 25 26 27 28 29 30 31 32 33 34 35 36 37 38 39 40 41 42 43 44 45 46 47 48 49 50
000
ASUS45 KCYS 241810
RWRWY

WYOMING REGIONAL WEATHER ROUNDUP
NATIONAL WEATHER SERVICE CHEYENNE WY
1100 AM MST FRI FEB 24 2017

NOTE:  "FAIR" INDICATES FEW OR NO CLOUDS BELOW 12,000 FEET
WITH NO SIGNIFICANT WEATHER AND/OR OBSTRUCTIONS TO VISIBILITY.

WYZ001-241900-
YELLOWSTONE NATIONAL PARK

CITY           SKY/WX    TMP DP  RH WIND       PRES   REMARKS
LK YELLOWSTONE   N/A     10   6  84 CALM      29.85S
6HR MIN TEMP:   3; 6HR MAX TEMP:  10; 6HR PCP:  0.03;

W YELLOWSTONE  NOT AVBL

$$
WYZ002>013-054>058-071-098>099-241900-
NORTHERN WYOMING

CITY           SKY/WX    TMP DP  RH WIND       PRES   REMARKS
JACKSON        PTSUNNY   19  12  73 S13       29.89S WCI   7
CODY           MIX PCPN  26  16  65 E3        29.94S
GREYBULL       LGT SNOW  26  22  84 S5        29.98S FOG     WCI  20
6HR MIN TEMP:  22; 6HR MAX TEMP:  26; 6HR PCP: TRACE;

WORLAND        CLOUDY    26  22  84 CALM      29.97S FOG
6HR MIN TEMP:  16; 6HR MAX TEMP:  26; 6HR PCP: TRACE;

SHERIDAN       CLOUDY    27  20  75 SE17      29.97S WCI  14
6HR MIN TEMP:  19; 6HR MAX TEMP:  27;

BUFFALO        CLOUDY    23  17  78 S10       29.94S WCI  12
6HR MIN TEMP:  18; 6HR MAX TEMP:  23; 6HR PCP: TRACE;

GILLETTE       CLOUDY    24  19  81 S8        29.97F HAZE    WCI  15
6HR MIN TEMP:  20; 6HR MAX TEMP:  24; 6HR PCP: TRACE;

HULETT         CLOUDY    27  19  74 MISG      30.00S
NEWCASTLE      LGT SNOW  23  19  86 S10       30.02S WCI  12

$$
WYZ014>020-022>026-101>103-241900-
CENTRAL WYOMING

CITY           SKY/WX    TMP DP  RH WIND       PRES   REMARKS
BIG PINEY      CLOUDY    18  11  74 CALM      29.89R
6HR MIN TEMP:   9; 6HR MAX TEMP:  18; 6HR PCP: TRACE;

PINEDALE       MIX PCPN  18  10  73 CALM      29.89R
DUBOIS         CLOUDY    16   9  73 CALM      29.84S HAZE
LANDER         CLOUDY    17  14  88 CALM      29.92R
6HR MIN TEMP:  14; 6HR MAX TEMP:  20; 6HR PCP:  0.01;

RIVERTON       CLOUDY    20  15  81 CALM      29.94R
6HR MIN TEMP:  15; 6HR MAX TEMP:  20; 6HR PCP: TRACE;

CASPER         CLOUDY    21  13  71 CALM      29.94S
6HR MIN TEMP:  12; 6HR MAX TEMP:  21; 6HR PCP: TRACE;

DOUGLAS        CLOUDY    18  15  88 MISG      29.98R
6HR MIN TEMP:  11; 6HR MAX TEMP:  18; 6HR PCP:  0.01;


$$
WYZ021-027>030-104>119-241900-
SOUTHERN WYOMING

CITY           SKY/WX    TMP DP  RH WIND       PRES   REMARKS
EVANSTON       CLOUDY    16   8  71 SW14      29.91R WCI   2
6HR MIN TEMP:  11; 6HR MAX TEMP:  16; 6HR PCP:  0.01;

FORT BRIDGER   CLOUDY    19  12  73 W13       29.94R WCI   7
ROCK SPRINGS   CLOUDY    16  11  80 SW7       29.90S WCI   6
6HR MIN TEMP:  10; 6HR MAX TEMP:  17; 6HR PCP: TRACE;

DIXON            N/A     19  10  66 W6        29.93R WCI  11
RAWLINS        CLOUDY    17   9  70 NE8       29.87R WCI   7
6HR MIN TEMP:  11; 6HR MAX TEMP:  17; 6HR PCP: TRACE;

SARATOGA       CLOUDY    18  12  79 W17       29.85R HAZE    WCI   2
LARAMIE        CLOUDY    14   6  70 SE14      29.81S WCI  -1
6HR MIN TEMP:   5; 6HR MAX TEMP:  15; 6HR PCP: TRACE;

CHEYENNE       CLOUDY    16   9  74 E5        29.91R WCI   9
6HR MIN TEMP:  13; 6HR MAX TEMP:  18; 6HR PCP:  0.03;

TORRINGTON     LGT SNOW  22  16  78 CALM      30.02R
6HR MIN TEMP:  18; 6HR MAX TEMP:  22; 6HR PCP: TRACE;

PINE BLUFFS    CLOUDY    19  16  86 NW6       29.97R WCI  11

$$



USA.gov is the U.S. government's official web portal to all federal, state and local government web resources and services.